RH
24 24 23 23 22 22 22 21 21 22 22 22 22 22 22 22 21 20 20 20 19 19 19 19 20 20 20 20 20 20 19 19 19 19 19 19 19 19 19 19 20 20 20 21 21 22 22 22 23 23 23 23 23 24 24 25 26 27 28 28 29 29 30 31 31 32 33 34 35
24 24 23 22 22 21 21 21 21 21 21 21 21 21 21 20 20 20 19 19 19 19 19 19 19 20 20 20 20 20 20 19 20 20 20 20 20 20 21 21 22 22 23 23 24 24 25 25 25 25 25 25 25 25 25 26 27 27 28 28 29 30 30 31 32 33 34 35 36
24 23 22 22 21 21 21 20 20 20 20 20 21 21 21 21 20 20 20 19 19 19 20 20 20 20 20 21 21 21 21 21 22 22 22 23 23 23 24 24 25 25 26 27 27 28 28 28 28 28 27 27 27 27 27 27 28 28 29 29 29 30 31 32 33 34 36 37 39
23 22 22 21 20 20 20 20 20 20 21 21 21 21 22 22 21 21 21 20 20 20 20 21 21 21 21 21 22 22 23 24 24 25 25 26 26 27 28 28 29 29 30 31 31 32 32 32 32 31 31 30 30 29 29 29 30 30 30 30 31 32 33 33 34 36 38 39 40
22 21 20 20 19 19 19 20 20 21 21 21 22 22 22 23 22 22 21 21 20 21 21 21 21 22 22 22 23 24 25 26 27 27 28 29 30 31 32 32 33 34 34 35 35 36 36 36 36 35 34 33 33 32 32 32 33 33 33 33 33 34 35 35 36 38 39 41 42
21 20 19 18 18 19 19 20 20 21 21 22 22 23 23 23 23 22 22 21 21 21 21 21 22 22 23 24 25 26 27 28 29 30 31 32 33 34 35 36 37 37 38 39 39 39 40 40 39 38 38 37 36 36 35 36 36 36 36 35 36 37 37 38 39 40 41 42 42
19 19 18 18 18 19 19 20 20 21 22 22 23 23 23 23 23 23 22 22 22 21 22 22 23 24 25 26 27 28 29 30 31 33 34 35 36 37 38 38 39 40 40 41 41 42 42 42 42 41 40 40 39 38 38 38 39 39 38 38 39 39 40 40 41 42 42 43 43
19 18 18 19 19 19 20 20 21 22 22 23 23 24 24 24 24 24 23 23 23 23 23 24 25 26 27 28 29 30 31 32 34 35 36 37 38 38 39 40 41 41 42 43 43 44 44 44 44 43 42 42 41 40 40 41 41 41 41 41 41 41 42 42 42 43 43 44 44
19 18 19 19 20 20 21 21 22 22 23 24 25 25 25 26 25 25 25 25 25 25 26 27 28 29 30 31 32 33 34 35 36 36 37 38 39 40 41 42 42 43 43 44 45 45 45 45 45 44 44 43 42 42 42 42 42 42 42 42 42 43 43 43 44 44 44 45 46
19 19 19 20 20 21 22 23 23 24 25 25 26 27 27 28 28 28 28 28 28 28 29 29 30 31 32 33 34 35 36 37 38 39 40 41 42 43 43 44 44 45 45 46 46 47 47 47 46 45 44 44 43 43 43 43 43 43 43 43 43 43 43 44 44 45 46 46 47
20 21 21 21 22 22 23 24 25 25 26 27 28 28 29 30 30 31 31 31 31 31 31 32 33 34 35 35 37 38 39 41 42 43 44 45 46 46 47 47 47 47 47 47 48 48 48 48 47 46 45 44 44 44 43 43 44 44 44 44 44 44 44 44 45 46 47 48 49
22 22 23 23 24 24 25 25 26 26 27 28 29 29 30 31 32 33 33 33 33 34 34 35 35 36 37 38 39 40 42 44 46 47 48 49 49 49 49 49 49 49 48 48 48 48 48 48 47 46 46 45 45 44 44 44 45 45 45 45 46 46 46 46 47 48 49 50 51
24 24 24 25 25 25 26 26 26 27 27 28 29 30 30 32 33 34 35 35 36 36 37 37 38 39 40 41 42 43 44 46 47 48 49 50 50 50 49 49 49 49 48 48 48 48 48 48 47 47 46 46 46 46 46 47 47 48 48 48 48 48 48 48 48 49 50 52 53
25 25 26 26 26 26 26 26 27 27 28 28 29 29 30 31 32 33 34 35 36 37 38 39 40 41 42 43 44 44 45 46 46 47 47 48 48 48 48 48 48 48 47 47 47 47 48 48 48 48 48 48 48 48 49 49 50 50 50 50 50 49 48 47 47 48 49 51 53
26 26 26 26 26 26 27 27 27 28 28 29 29 30 30 31 32 33 34 35 36 36 37 38 39 40 41 42 43 43 44 44 45 45 45 44 44 44 45 44 45 45 45 46 46 47 47 47 48 48 49 49 50 50 50 50 50 50 49 48 47 46 44 43 44 45 47 49 51
26 26 26 26 26 27 27 27 28 28 29 30 31 31 32 33 33 34 34 35 36 36 37 37 38 38 39 40 40 41 42 42 42 43 42 42 42 42 42 42 42 42 43 43 44 45 45 46 47 47 48 48 48 48 48 47 46 45 44 43 41 40 40 40 40 42 45 48 50
27 27 27 27 27 27 28 28 29 29 30 31 32 33 33 34 34 35 35 36 36 36 36 36 37 37 37 37 38 38 39 39 39 39 39 39 39 40 39 39 40 40 40 41 41 42 42 43 44 44 45 44 44 44 43 42 41 40 39 38 37 37 37 37 39 41 44 47 49
27 27 27 27 27 28 28 29 30 31 32 32 33 34 34 35 35 35 35 35 35 35 35 35 35 35 34 34 34 34 34 34 34 34 34 34 34 35 35 35 35 36 37 38 38 39 39 40 40 40 40 40 40 39 39 38 38 37 36 36 35 35 36 37 38 41 44 47 48
28 28 28 28 28 29 30 30 32 33 33 34 35 35 35 36 35 35 35 35 35 34 33 33 32 32 32 31 31 30 30 30 30 29 29 29 29 29 29 29 30 30 31 32 33 34 34 35 36 37 37 37 37 37 36 36 36 35 35 34 34 35 35 37 39 42 44 47 48
29 29 29 29 30 30 31 32 33 34 35 36 36 36 36 36 36 35 35 34 34 33 32 32 31 30 30 29 28 28 28 27 27 27 26 26 26 26 25 25 26 26 27 27 28 29 30 31 32 33 34 34 35 35 35 35 34 34 34 34 34 35 36 38 40 43 45 47 48
30 30 30 30 31 31 32 33 35 35 36 37 37 37 37 37 36 36 35 34 33 33 32 31 30 29 29 28 27 27 26 26 26 25 25 24 24 24 24 24 24 24 24 25 26 26 27 28 30 31 32 33 34 34 34 34 34 34 34 35 35 36 38 40 42 44 46 47 48
31 31 31 31 32 32 33 34 35 36 37 37 38 38 38 37 36 35 34 34 33 32 31 30 29 29 28 27 26 26 25 24 24 23 23 22 22 22 22 23 23 24 24 24 25 26 27 28 30 31 32 34 34 35 35 36 36 36 37 38 39 40 41 43 45 46 47 48 48
31 31 31 31 32 33 34 35 35 36 37 37 37 37 37 36 35 34 33 32 31 30 29 29 28 27 26 26 25 24 23 22 21 21 20 20 21 21 22 23 24 24 25 26 27 28 30 31 32 34 35 37 37 38 39 40 41 42 42 43 44 45 46 47 48 48 48 48 48
31 32 31 32 32 33 33 34 35 35 35 35 35 35 34 33 32 31 30 29 29 28 27 26 26 25 24 23 22 21 21 20 19 19 19 19 20 21 22 24 25 26 27 28 30 32 35 37 38 40 41 43 44 45 46 47 48 49 50 50 50 50 50 50 50 50 49 49 48
32 32 32 32 32 33 33 34 34 33 33 33 32 31 30 29 28 27 27 26 25 25 24 24 23 22 21 21 20 19 19 18 18 19 19 20 21 23 24 25 27 28 30 32 35 38 41 44 46 48 50 51 52 53 54 54 55 56 56 56 56 55 54 53 52 51 50 49 49
32 32 32 32 32 32 32 32 32 31 30 29 28 27 26 25 24 24 23 23 22 22 21 21 20 20 19 19 18 18 17 18 19 20 21 22 23 24 25 27 28 30 33 36 40 44 48 51 54 56 58 58 59 59 59 59 60 60 60 60 59 58 56 55 53 52 51 51 52
32 32 32 31 31 31 30 30 28 27 26 25 24 23 22 22 22 21 21 20 20 20 20 19 19 19 18 18 17 17 18 18 20 21 22 24 24 25 26 28 31 34 37 41 46 50 53 56 58 60 61 62 61 61 61 61 61 61 61 61 59 58 56 55 54 54 54 56 58
31 30 30 29 29 28 27 26 25 23 22 22 21 21 20 20 20 19 19 19 19 19 18 18 18 18 18 18 18 18 18 20 21 23 24 25 27 28 30 32 35 38 42 47 51 54 57 59 61 62 62 62 62 62 62 61 61 61 61 60 58 57 55 55 56 58 60 63 66
28 28 27 26 25 24 23 22 21 21 20 20 20 19 19 19 19 19 19 19 18 18 18 18 18 18 18 18 19 19 20 21 23 24 26 28 29 31 34 37 40 44 47 51 54 56 58 60 61 62 63 63 62 62 62 61 61 60 60 58 57 57 58 60 62 65 67 69 71
25 24 23 23 22 21 20 20 20 19 19 19 19 19 19 19 19 19 19 19 19 19 19 19 19 19 19 20 20 21 22 22 24 27 29 31 34 37 40 43 45 48 50 53 55 57 59 60 62 63 63 63 62 62 62 62 61 60 59 58 58 60 63 66 68 69 71 72 73
22 22 21 20 20 19 19 19 19 19 19 19 19 19 19 19 19 19 19 19 19 19 19 20 20 20 20 21 21 22 23 24 27 30 33 37 40 42 45 47 49 51 53 54 56 57 59 60 62 63 63 63 62 62 62 62 61 60 59 59 61 64 68 70 71 72 73 74 75
20 20 20 19 19 19 19 19 19 19 19 19 19 19 19 19 19 19 19 19 19 19 20 20 20 21 21 22 22 24 25 27 30 34 38 43 46 48 49 51 52 53 54 55 56 57 58 59 60 61 61 62 62 62 62 62 62 61 60 60 63 67 69 71 72 73 74 75 76
20 20 19 20 19 19 19 19 19 19 19 19 19 19 19 19 18 18 19 19 19 20 20 21 21 22 23 23 24 25 27 30 35 39 43 48 50 52 52 53 53 54 55 55 56 56 56 57 57 58 59 60 61 62 62 62 62 61 60 61 64 67 70 71 73 74 75 76 78
20 20 20 20 20 20 20 19 19 19 19 18 18 18 18 18 18 18 18 18 19 20 20 21 22 23 24 25 27 29 31 34 39 44 48 51 53 54 54 54 54 55 56 56 55 55 54 54 54 54 56 58 60 61 62 62 62 61 59 59 61 64 68 71 73 75 77 79 80
21 21 21 20 20 20 19 19 19 18 18 18 17 17 17 17 17 18 18 19 19 20 21 22 23 24 26 27 29 32 36 39 44 48 51 53 54 55 55 55 56 56 56 56 55 54 52 51 51 52 54 57 59 61 61 62 61 59 58 56 58 61 65 70 74 76 78 81 82
21 21 21 20 20 19 19 18 18 18 17 17 17 16 16 16 17 17 19 20 20 21 22 23 24 26 27 29 31 35 39 44 48 51 53 55 56 57 57 57 57 57 56 56 54 52 51 50 50 51 52 55 58 60 61 61 60 58 56 54 55 57 62 68 74 77 80 81 82
21 21 21 20 19 19 18 18 17 17 17 16 16 16 17 17 17 18 20 21 23 23 24 25 26 27 29 31 34 38 42 47 51 54 56 57 58 58 58 58 58 57 56 55 53 52 50 49 49 50 52 54 57 60 61 61 60 57 55 54 54 56 61 68 74 79 81 82 82
21 20 20 20 19 18 18 18 17 17 17 17 17 17 18 18 19 20 22 24 26 27 27 27 28 29 30 33 36 40 45 50 54 57 59 59 59 59 59 58 57 56 55 54 52 51 49 48 48 49 51 54 57 59 61 62 61 59 57 56 56 58 62 68 75 79 81 81 82
20 20 20 19 19 18 18 18 17 17 18 18 18 18 19 21 22 23 25 27 29 30 31 31 31 31 32 35 39 43 48 52 56 59 60 60 59 59 59 58 57 56 55 53 52 50 49 47 47 48 50 53 56 59 61 63 63 63 62 61 62 63 66 70 75 79 81 81 82
20 19 19 19 19 19 18 18 18 18 19 19 20 21 22 24 26 27 29 31 32 34 34 34 34 34 35 37 41 46 50 54 57 59 60 60 60 59 59 58 57 55 54 52 51 49 48 47 47 48 49 52 55 58 61 64 65 66 67 68 69 70 71 73 76 78 80 80 81
19 19 19 19 19 19 19 19 19 19 20 21 23 24 26 28 29 31 32 34 35 36 37 37 37 37 37 39 43 47 51 55 57 59 60 60 59 59 58 57 56 55 53 51 50 48 47 46 46 47 49 51 54 58 61 64 67 70 72 73 74 75 75 76 77 78 79 80 81